マクノート彗星

220P/McNaught (2015)

English version
Home page
Updated on October 31, 2016

---------------------------------------------------------------------

・ プロフィール

・ 写真集

・ 軌道要素

Epoch 2015 June 27.0 TT = JDT 2457200.5
T 2015 June 13.75203 TT                                 MPCW
q   1.5539754            (2000.0)            P               Q
n   0.17911202     Peri.  180.66948     +0.87271655     +0.48312108
a   3.1168762      Node   150.11325     -0.44728027     +0.84898734
e   0.5014318      Incl.    8.12520     -0.19571968     +0.21404324
P   5.50
From 335 observations 2004 May 20-2015 Nov. 20, mean residual 0".6.

・ 光度変化

        m1 = 14.0 + 5 logΔ + 15.0 log r

---------------------------------------------------------------------

軌道要素はM.P.E.C. 2015-W63に掲載されたものです。
光度グラフはComet for Windowsで作成したものです。

---------------------------------------------------------------------

Copyright(C) Seiichi Yoshida (comet@aerith.net). All rights reserved.